Theta_e
347 346 334 322 322 324 323 323 321 319 318 317 318 318 318 319 322 326 328 329 329 329 329 329 328 328 327 326 324 322 323 323 323 324 325 326 326 327 328 329 329 329 329 330 330 329 329 330 330 330 329 327 326 328 328 327 325 324 324 322 321 320 318 317 317 316 315 314 314 314 315 317 318 319 319 319 319 321 322 323 325 328 330 331 332
348 348 337 323 322 324 323 323 322 320 318 318 317 318 319 321 324 327 329 330 331 330 330 330 330 329 329 328 327 325 326 326 326 326 327 327 327 328 329 329 329 328 329 330 330 329 328 328 330 331 330 329 329 329 329 328 327 327 325 324 323 320 318 318 317 316 315 315 314 314 315 317 319 319 318 318 318 319 321 322 324 326 329 331 332
349 348 338 325 323 324 323 324 323 320 319 318 318 319 320 323 324 326 329 331 332 332 331 330 329 329 329 329 328 327 327 327 327 328 328 328 329 329 329 328 327 328 329 330 330 329 328 328 328 329 330 331 330 329 329 329 328 328 327 326 324 321 318 317 317 317 317 317 315 315 316 318 319 319 318 318 317 319 320 322 323 325 328 331 332
349 348 337 326 325 325 324 325 324 321 319 319 320 321 322 324 326 327 330 332 332 331 330 329 328 328 328 327 327 327 328 328 328 328 328 328 328 328 327 327 327 327 327 328 328 328 329 329 327 328 329 330 328 327 328 328 328 328 328 327 325 321 318 317 318 319 320 319 317 316 318 318 319 318 317 317 317 318 319 321 322 324 327 330 332
351 346 334 326 326 325 324 326 325 322 321 321 322 322 323 324 327 329 331 331 330 329 329 328 328 328 328 327 327 329 329 329 329 328 327 327 327 327 327 328 328 326 323 324 325 326 327 327 327 327 328 327 324 323 326 328 328 328 327 327 325 322 319 319 321 322 322 321 318 318 318 318 318 317 317 316 316 317 318 320 322 322 325 330 332
350 344 334 329 328 325 325 328 327 323 322 323 324 323 322 325 328 331 332 331 330 329 329 329 328 328 328 327 329 330 330 329 328 327 326 326 326 327 327 328 327 325 321 321 322 323 323 322 322 323 323 322 322 323 326 327 327 327 327 326 326 325 322 321 323 323 322 321 319 318 318 318 317 317 316 316 316 317 318 319 321 322 324 327 332
348 342 334 330 327 325 327 331 331 326 323 323 323 322 322 325 329 332 333 333 330 328 328 328 328 328 327 327 328 330 330 330 328 326 326 327 327 327 326 324 324 323 322 321 322 322 322 321 320 321 322 322 322 323 324 325 326 326 327 327 326 326 324 324 324 323 322 321 320 319 318 317 316 316 316 316 316 316 318 319 321 321 322 324 328
346 340 334 331 327 327 331 334 333 329 326 324 322 320 321 325 328 332 333 332 328 326 327 328 328 327 327 327 327 330 330 329 327 326 327 327 326 327 325 324 323 323 324 324 324 324 324 323 322 322 323 323 322 322 322 323 324 325 325 326 326 326 325 325 324 324 323 321 319 319 317 316 315 316 315 316 317 317 318 319 321 321 321 323 325
346 341 335 332 327 329 334 336 334 332 331 327 323 320 321 324 328 332 332 329 327 326 327 327 326 327 329 328 327 327 327 326 324 324 325 326 326 326 325 324 325 325 325 325 325 326 326 325 323 322 322 322 322 322 322 322 322 322 323 324 325 325 325 324 324 323 322 320 319 318 316 315 315 315 316 317 317 318 319 320 321 321 322 322 323
346 342 338 333 329 332 336 336 334 334 333 327 322 322 322 323 326 329 328 326 326 326 326 325 325 326 328 329 328 326 324 324 323 323 324 325 326 326 326 326 326 326 326 326 326 326 326 325 324 323 322 321 320 320 321 321 320 319 320 321 322 322 322 323 322 321 320 319 318 316 315 315 315 316 316 317 318 319 320 320 321 321 321 322 323
346 342 340 334 332 335 336 335 336 337 332 325 323 322 323 323 324 325 325 325 324 325 324 323 323 325 327 330 329 327 325 324 324 324 324 325 326 327 327 327 327 327 326 326 324 323 324 324 325 324 322 321 320 320 321 321 320 318 318 318 319 320 321 322 321 320 319 317 316 315 315 316 316 316 316 317 318 319 320 320 320 321 321 321 323
344 343 341 336 336 338 333 331 336 337 331 325 324 323 324 324 324 324 325 325 324 324 323 322 323 325 329 331 331 328 326 325 325 324 324 326 327 327 327 327 327 326 326 325 323 321 322 323 324 324 322 321 320 320 321 322 321 318 317 317 318 319 321 321 320 319 317 316 315 315 315 315 316 316 316 317 318 319 320 320 321 321 321 321 322
344 344 342 338 340 339 330 330 335 334 330 327 326 325 325 325 325 325 325 324 324 324 324 323 325 328 330 331 331 329 327 326 326 325 325 326 326 327 327 327 326 325 326 325 322 320 322 323 323 324 322 321 321 321 321 321 321 320 319 318 318 318 320 321 320 318 317 315 315 315 315 315 316 316 317 317 318 319 319 320 321 321 321 322 321
346 345 342 340 341 336 329 332 334 331 330 330 330 328 325 323 324 325 325 325 324 325 325 326 326 328 330 331 331 331 329 327 326 326 325 326 327 327 327 327 326 325 324 323 321 320 322 323 324 323 321 321 322 322 321 321 321 321 320 318 318 319 321 321 320 319 318 316 315 315 315 316 316 316 317 318 318 319 319 320 320 321 321 322 321
346 344 342 342 340 334 331 333 333 331 331 332 333 331 326 323 324 324 325 325 324 325 326 326 326 327 328 330 332 331 329 327 327 326 327 327 327 327 327 326 326 324 322 321 320 320 321 322 323 323 322 322 322 323 323 322 322 322 320 318 319 320 321 322 320 320 319 318 316 315 315 315 316 317 317 318 319 319 320 320 320 321 321 322 322
344 343 342 341 337 333 332 333 332 332 332 334 334 333 328 324 322 323 323 324 324 326 326 326 325 326 328 330 332 331 330 328 327 327 327 327 327 326 325 325 326 324 320 319 319 320 321 321 322 323 322 322 322 323 323 323 323 322 320 320 320 321 321 322 321 320 320 319 317 316 316 315 316 317 318 319 319 320 320 320 321 321 322 322 322
343 342 342 338 335 333 332 332 332 332 333 334 334 332 328 323 321 322 323 324 325 326 326 326 326 328 330 330 330 330 330 329 327 327 326 326 326 325 325 325 325 322 318 317 319 320 321 321 321 321 321 322 323 324 324 324 323 322 321 320 321 321 321 322 322 322 321 320 317 316 316 315 316 317 319 319 319 320 320 321 321 322 322 323 323
343 341 339 337 334 333 332 332 331 331 331 331 328 328 327 324 322 322 324 325 326 327 327 328 328 330 331 329 328 330 330 329 327 327 326 326 325 325 325 325 324 322 319 317 318 319 320 320 321 321 321 322 324 324 324 324 323 321 321 321 321 322 322 322 322 322 322 320 318 317 317 316 316 317 319 320 319 320 320 321 322 323 324 324 324
342 340 338 338 335 332 332 331 329 328 327 326 325 325 326 325 323 324 325 327 329 329 329 330 331 331 330 328 328 330 329 328 327 327 326 326 325 325 325 325 324 322 320 318 318 318 318 318 319 319 320 323 324 324 324 323 322 321 321 322 322 322 321 322 322 322 321 320 318 317 318 317 316 317 319 320 319 320 320 321 322 323 324 325 326
341 339 339 338 333 331 332 330 327 325 325 324 325 326 327 326 325 326 327 330 331 331 331 332 331 330 329 329 329 329 328 327 327 327 327 326 326 325 325 325 324 322 320 318 318 317 316 317 318 318 320 322 323 323 323 323 322 321 321 322 322 321 321 321 322 322 322 320 318 318 318 318 316 316 318 320 320 320 321 322 323 324 326 327 327
339 338 338 335 331 332 334 330 326 325 325 324 326 329 330 331 329 329 331 332 333 333 333 331 329 328 327 327 328 327 327 327 327 327 327 326 326 325 324 324 323 321 320 319 319 317 316 316 317 318 320 321 322 322 323 322 321 321 322 322 321 321 321 321 321 322 322 320 319 319 319 318 316 316 317 319 320 320 321 322 324 326 328 328 328
337 337 335 332 330 333 334 330 325 325 326 325 328 332 334 334 332 333 333 334 333 332 331 329 327 326 326 326 327 327 327 327 327 326 326 325 324 324 323 322 321 320 320 320 319 316 315 316 318 319 320 321 322 322 322 322 322 322 321 321 320 321 321 321 321 321 321 320 319 320 319 317 316 315 317 319 320 320 321 323 326 329 329 328 328
337 336 334 332 332 334 334 329 325 326 327 328 332 335 335 335 334 334 333 332 331 330 329 328 326 326 326 326 326 326 326 326 326 325 324 324 323 323 322 321 321 321 321 321 318 315 314 316 318 320 321 322 322 322 322 322 322 321 320 320 320 321 322 321 321 320 320 320 320 321 319 317 316 316 316 317 319 320 320 322 327 331 331 328 328
338 337 335 332 333 336 335 331 328 328 329 332 335 336 336 334 334 333 332 330 329 329 328 327 326 326 326 326 326 325 325 325 324 323 322 321 321 322 322 322 322 322 321 320 316 313 314 316 319 320 321 321 321 322 322 322 321 320 320 320 321 322 322 321 321 320 320 320 320 321 319 317 316 316 316 316 317 318 320 321 325 330 331 329 328
338 337 335 334 335 337 337 331 329 330 332 334 336 336 335 334 332 331 330 329 329 328 327 326 326 326 326 325 325 325 324 322 321 320 320 320 321 322 322 322 322 321 320 318 313 312 313 317 318 320 321 321 321 322 322 321 320 320 320 321 321 322 321 321 320 319 319 319 320 320 318 317 317 316 315 316 316 317 320 321 322 327 329 329 329
338 337 336 336 335 335 334 331 331 332 333 334 335 334 333 332 331 329 329 328 328 327 327 326 326 326 326 325 324 323 322 321 321 320 320 320 321 322 322 322 322 321 319 315 311 311 314 317 319 321 321 321 322 321 321 320 320 320 321 321 321 321 320 319 319 319 319 319 319 320 319 318 319 317 315 316 316 317 320 321 321 324 328 330 330
337 336 334 333 333 333 333 332 333 334 334 334 334 333 332 331 331 330 329 328 327 326 325 326 326 326 325 324 323 322 321 321 321 321 321 320 320 322 322 321 321 320 317 312 309 311 315 318 320 321 321 321 321 320 319 319 320 320 320 320 320 320 319 319 319 318 318 318 319 319 319 319 320 318 315 315 316 315 317 320 320 321 325 328 329
334 332 330 328 329 330 331 331 332 333 333 333 333 332 332 331 330 329 328 327 326 326 326 326 326 325 323 322 322 322 321 321 320 320 321 320 321 321 321 321 320 318 313 309 309 312 316 319 321 321 320 320 320 319 319 319 319 320 319 319 319 318 318 318 318 317 317 318 318 319 319 320 321 319 316 315 316 315 316 319 320 320 321 323 325
329 327 325 325 325 325 324 324 323 323 326 330 331 331 331 330 329 328 327 326 326 326 326 325 324 323 322 321 321 321 320 319 319 319 320 321 320 320 321 320 319 315 310 308 310 313 316 318 319 320 319 319 318 318 318 319 319 319 318 318 318 318 318 317 317 316 316 316 316 318 318 319 320 320 318 315 315 315 316 317 319 319 319 320 321
325 323 322 322 322 321 320 319 318 320 326 330 331 330 329 328 327 327 326 326 326 325 324 323 322 322 320 319 320 320 319 319 318 319 320 321 320 321 321 319 315 311 308 308 311 314 316 317 318 318 318 318 318 318 318 318 318 317 317 317 317 317 317 316 316 315 314 313 314 315 317 318 319 320 320 318 316 315 315 316 317 318 319 319 319
324 323 322 323 322 320 318 319 322 326 330 331 330 329 328 327 326 327 327 326 325 323 323 322 322 320 319 318 319 319 319 319 319 319 320 320 320 320 319 316 312 309 309 310 312 314 315 316 317 317 317 316 317 317 316 316 316 316 316 316 316 315 315 315 314 313 312 311 311 313 314 315 316 318 320 320 319 317 315 316 316 317 318 319 320
322 322 322 322 321 321 321 324 328 330 331 330 329 328 328 327 327 327 326 324 323 323 323 323 321 320 319 319 319 319 319 319 319 319 320 320 320 319 316 312 310 309 310 312 313 314 315 316 316 316 315 315 315 315 315 315 315 315 315 315 314 313 313 312 311 310 309 308 308 309 311 312 313 315 318 320 321 319 317 317 317 316 317 318 320
319 320 320 320 322 325 327 329 330 330 329 329 328 328 328 327 327 326 323 322 323 323 323 323 322 321 320 319 320 319 319 318 318 318 318 317 316 314 311 310 310 311 312 312 313 313 314 315 314 314 314 314 314 314 315 315 314 313 313 312 312 311 310 309 308 308 307 307 307 307 309 309 310 312 315 318 320 320 320 319 319 318 316 317 319
320 324 326 325 326 329 330 330 330 329 329 328 328 327 327 326 325 324 323 323 324 324 324 323 322 321 321 320 320 319 317 315 314 313 312 312 311 310 311 312 313 313 313 312 312 312 313 313 313 313 314 313 313 313 313 313 312 311 311 310 309 309 308 308 308 307 307 307 307 307 307 307 307 308 311 315 318 320 320 321 321 320 317 317 318
323 327 328 328 328 329 329 329 329 329 328 328 328 327 326 325 324 323 324 324 324 324 323 323 322 321 320 320 319 317 313 311 310 310 310 311 311 311 313 313 314 314 314 313 312 312 312 313 312 312 312 311 311 311 311 311 310 309 308 308 307 307 307 307 306 306 305 305 305 305 306 306 306 306 308 313 316 318 319 320 321 321 319 319 319
323 324 327 329 330 329 329 329 329 328 328 328 327 326 325 325 325 325 325 325 324 324 323 322 321 321 320 319 319 316 314 312 311 311 311 311 312 312 314 314 315 315 313 312 312 312 311 311 310 310 310 309 309 309 308 308 307 307 307 306 306 306 305 304 304 303 303 303 303 304 304 304 304 304 305 309 313 316 318 319 320 321 321 321 319
321 322 325 328 329 330 330 329 328 328 328 327 326 325 325 325 326 325 324 324 323 323 323 321 320 320 319 318 317 316 315 314 313 312 311 311 311 312 313 314 314 314 312 311 311 311 310 309 309 309 309 309 309 308 307 306 306 307 307 306 305 305 303 302 301 301 301 301 302 302 302 303 303 303 304 306 308 312 316 318 319 320 321 322 321
322 323 324 326 327 329 329 329 328 327 326 326 326 326 326 326 325 324 324 324 324 323 322 320 319 319 318 317 316 315 315 314 313 312 312 311 310 310 311 311 310 310 310 310 310 310 310 309 309 309 309 309 308 307 307 306 306 306 306 305 303 302 301 299 299 299 299 300 300 300 300 301 301 302 303 304 305 308 312 315 318 319 320 321 321
323 324 325 327 328 329 328 328 328 327 326 326 326 326 326 325 325 324 324 324 323 322 320 319 318 318 317 316 315 315 315 314 313 312 312 312 311 309 309 309 308 308 309 310 309 309 309 309 309 308 308 307 306 306 305 306 306 305 303 301 300 299 298 298 297 298 298 299 299 298 298 298 300 301 303 303 304 305 308 312 315 318 320 321 321
327 327 327 328 328 328 328 328 327 326 326 325 325 325 325 325 325 325 324 323 322 320 319 319 318 317 317 316 315 315 314 314 313 312 312 312 311 309 309 308 307 307 308 308 308 308 308 308 308 307 306 306 306 305 305 304 303 301 299 298 297 296 296 296 296 296 297 297 297 296 296 296 298 300 301 301 302 303 305 308 312 316 318 320 321
328 328 327 327 327 327 327 327 327 326 325 324 324 325 325 324 324 323 322 321 320 319 319 318 317 317 317 315 315 314 314 314 313 312 311 311 310 309 308 308 307 307 307 307 307 307 306 306 306 305 305 306 305 304 302 300 298 297 296 295 295 294 294 295 295 295 296 296 295 295 295 295 297 299 300 299 300 302 304 306 309 313 317 319 320
327 326 326 326 326 326 326 326 326 325 325 325 325 326 324 323 321 321 320 320 319 318 318 317 317 317 316 315 314 314 314 313 313 312 311 310 309 308 308 307 306 305 306 306 306 306 305 305 304 304 305 305 303 300 297 296 295 294 294 294 294 294 294 294 294 295 295 295 295 295 295 295 296 297 298 298 298 300 303 305 307 310 314 317 319
325 325 324 324 325 325 325 325 325 324 325 325 325 325 324 322 321 319 319 319 318 317 317 317 317 316 316 315 315 314 314 313 312 311 310 309 308 308 307 306 305 305 304 305 305 304 304 303 302 303 303 302 298 295 294 293 293 293 293 294 294 294 294 294 294 295 295 295 295 295 295 295 295 296 297 297 297 298 302 304 306 307 310 315 318
323 323 323 324 324 324 324 323 324 324 324 325 324 323 323 321 320 319 318 318 318 318 317 317 316 316 315 315 314 314 313 312 310 309 308 308 308 307 306 305 305 304 304 304 304 303 303 302 301 299 299 298 295 293 293 293 293 293 293 294 294 294 294 294 295 295 295 295 295 295 295 295 295 295 296 296 296 296 299 302 304 305 307 311 315
324 324 324 324 323 322 322 323 323 323 323 323 322 321 321 321 320 318 318 317 318 317 317 317 317 316 315 314 313 313 311 310 308 306 306 306 307 307 306 305 305 304 304 304 303 303 303 302 299 297 296 295 293 293 293 293 293 293 293 293 293 294 294 294 294 294 294 295 295 295 295 295 295 295 295 295 296 296 297 299 302 304 305 308 312
323 322 322 322 321 321 321 321 321 321 321 320 319 319 319 319 319 319 318 318 318 317 317 317 316 316 315 314 313 312 311 309 307 304 303 304 305 306 305 305 305 305 304 304 303 303 303 302 298 295 294 294 293 293 293 293 293 293 293 293 293 293 294 294 294 294 294 294 295 295 295 295 295 295 294 294 295 296 296 297 299 302 303 305 307
320 319 319 318 318 318 318 318 318 317 317 316 317 317 317 318 318 317 317 317 317 317 316 316 315 315 314 313 312 311 310 308 306 304 303 303 304 305 305 305 305 304 304 304 303 303 302 299 296 294 293 293 293 293 293 293 293 293 293 293 293 293 293 293 293 293 294 294 294 294 294 295 295 295 294 294 295 295 296 296 297 299 301 303 305
318 318 317 316 316 316 316 316 316 315 315 315 315 316 316 316 316 316 315 315 315 315 315 314 314 314 313 313 312 311 309 307 305 304 303 304 304 304 304 304 304 304 304 303 303 303 300 296 293 293 293 293 293 293 293 293 293 293 293 293 293 292 292 293 293 293 293 294 294 294 294 294 294 294 294 294 294 295 295 295 296 298 299 300 302
317 317 315 315 314 314 315 315 314 315 314 314 314 314 314 314 314 315 315 315 315 315 314 314 314 314 313 313 312 310 308 307 305 304 304 304 304 304 304 304 303 304 304 303 303 303 300 296 294 294 294 294 293 294 293 293 293 292 292 292 292 292 292 292 292 293 293 293 293 293 294 294 294 294 294 294 294 294 294 295 295 296 298 299 300
316 315 315 315 314 313 313 313 314 314 314 314 313 313 313 313 313 313 314 314 314 315 315 314 314 313 312 311 310 308 307 306 305 305 304 304 304 304 304 304 304 304 304 303 302 301 299 296 295 295 295 295 295 294 294 294 293 293 292 292 292 292 292 292 292 292 292 293 293 293 294 294 294 294 294 294 293 293 294 295 295 295 297 298 299
311 311 312 313 313 313 312 311 312 313 313 314 314 314 314 313 313 313 313 313 314 314 314 313 312 311 310 310 309 307 306 305 305 305 304 304 304 304 304 304 304 304 303 302 300 299 297 296 296 296 296 297 296 295 295 295 294 294 294 293 292 292 292 291 291 291 292 292 293 293 293 294 294 294 294 294 293 293 293 294 294 295 295 297 298
Wind_Speed
36 34 31 27 24 20 16 13 11 10 10 10 9 7 5 5 5 6 5 4 4 5 6 6 6 7 8 8 9 9 9 10 9 8 9 10 11 12 12 14 15 16 16 17 17 17 19 20 21 21 20 19 19 20 21 20 20 19 20 21 19 19 19 21 25 31 32 30 31 33 34 36 38 39 41 43 40 34 30 30 31 31 32 32 31
38 36 32 29 26 21 16 13 12 11 10 10 10 8 7 6 7 6 5 5 6 7 8 8 8 8 7 8 9 9 10 10 8 8 10 11 12 12 13 15 18 19 19 19 19 18 19 21 23 23 23 23 22 21 22 22 22 22 22 21 21 19 19 21 24 29 33 32 33 35 36 36 39 41 43 45 43 39 34 31 31 30 31 31 31
39 37 34 31 27 23 18 14 12 12 11 12 11 9 8 8 7 7 6 6 8 9 10 10 10 9 9 10 11 10 10 9 9 10 11 12 13 14 16 18 19 20 21 20 19 18 19 21 22 23 24 25 24 23 23 23 23 25 24 23 21 20 19 20 23 27 31 33 35 37 38 38 40 42 44 45 44 41 37 33 32 32 31 30 31
41 39 36 32 28 24 20 16 14 13 12 13 13 11 9 9 8 7 6 7 9 10 11 11 11 11 11 11 10 9 9 10 11 12 12 13 15 16 17 18 18 19 18 17 16 16 18 19 20 21 22 24 25 23 23 24 25 26 26 24 21 20 20 20 22 26 30 34 36 37 38 39 41 43 44 45 44 41 39 36 33 33 31 30 31
43 40 37 33 29 25 21 17 15 13 13 14 14 11 9 9 9 8 8 8 8 9 11 12 12 11 12 11 9 9 10 12 13 14 15 16 16 16 16 16 16 17 16 14 14 15 16 17 18 19 20 22 23 22 23 25 27 27 27 27 23 21 21 22 24 26 29 34 36 37 38 40 43 44 43 44 45 44 41 37 34 33 32 30 30
44 41 38 34 30 26 23 19 15 14 13 14 13 11 9 9 9 9 9 9 10 12 13 13 12 12 12 12 11 11 12 14 15 16 16 15 14 14 15 15 15 16 15 14 14 14 15 16 17 16 16 18 20 21 23 25 26 27 28 29 27 25 24 25 27 28 30 33 36 37 40 41 44 45 43 42 45 46 44 41 36 32 31 30 30
46 42 39 35 31 28 24 19 16 14 12 12 12 10 9 9 10 11 11 12 14 15 14 13 13 13 12 11 11 12 13 16 16 14 12 12 12 13 14 14 15 16 16 15 15 15 16 16 16 15 15 17 18 20 21 21 22 24 26 28 28 28 26 27 28 29 31 33 35 37 40 42 43 45 45 44 45 45 44 43 41 36 32 31 32
47 44 40 36 32 28 23 19 17 15 11 11 11 10 9 10 11 12 14 16 16 15 13 14 14 12 10 10 11 12 14 16 15 13 12 11 12 13 14 15 16 17 18 18 17 17 17 17 17 17 18 19 19 18 19 19 20 22 22 22 24 25 26 28 30 31 31 33 35 36 39 42 44 46 47 46 45 46 44 42 43 42 37 34 34
48 44 41 38 33 27 23 19 18 16 13 11 10 10 10 10 11 13 15 16 16 14 14 15 13 10 9 10 11 11 13 14 14 13 13 12 12 14 15 16 17 19 19 20 20 20 19 19 19 19 20 20 20 19 18 18 19 20 19 17 18 20 23 26 28 29 30 31 34 36 39 42 45 47 47 45 45 46 45 42 43 43 42 40 37
49 45 43 39 33 27 22 19 18 17 15 13 11 11 11 11 11 13 14 15 14 13 13 13 12 10 9 10 11 11 11 12 12 13 13 12 13 15 17 18 18 19 19 20 21 21 21 20 19 20 20 20 20 19 18 17 17 18 18 17 16 18 21 24 26 26 28 30 32 36 39 43 46 46 46 45 44 44 44 43 43 43 43 43 40
48 46 44 37 30 26 21 18 20 20 16 13 12 12 12 12 13 14 15 14 13 12 12 12 11 10 10 11 12 12 12 12 12 12 12 13 14 17 19 19 19 19 19 20 21 21 21 21 19 19 19 19 19 19 18 18 17 17 17 17 18 19 21 23 24 25 26 28 31 35 39 44 46 46 45 44 43 43 42 42 43 44 43 43 42
46 43 39 31 27 27 20 18 23 22 17 14 13 13 13 14 15 16 16 15 13 12 11 11 11 11 11 13 13 14 15 14 13 13 14 14 16 18 20 20 19 19 20 20 21 20 20 19 18 17 18 17 17 17 18 17 17 17 17 17 18 20 21 21 22 23 24 27 31 35 40 43 45 44 43 43 43 42 43 42 42 43 44 43 44
44 41 35 29 31 28 18 18 24 22 17 16 15 14 15 16 17 18 17 14 13 13 13 12 12 13 14 15 15 16 17 16 15 15 16 16 17 18 20 19 19 19 20 21 21 19 17 16 17 16 16 16 16 16 16 16 16 18 18 19 20 20 19 19 20 21 23 26 31 35 39 41 42 42 41 40 42 43 44 44 42 43 44 44 46
47 42 35 33 34 27 19 21 24 20 17 18 18 17 17 17 18 19 17 15 14 14 14 14 14 14 16 17 17 18 18 18 17 17 17 18 18 19 19 19 18 19 21 22 20 18 16 16 16 16 15 15 16 16 16 17 18 19 20 22 22 21 20 20 21 22 23 26 31 34 37 39 40 41 40 38 41 43 44 45 45 44 45 45 46
48 42 35 36 32 24 21 24 23 20 18 19 21 21 19 18 19 19 18 16 15 15 15 15 15 15 16 18 19 20 19 19 18 18 18 18 19 20 20 21 21 21 22 22 20 18 17 16 17 17 17 16 16 17 17 19 20 21 22 24 24 23 22 22 23 24 25 27 31 34 37 39 40 41 40 39 41 42 43 45 44 44 44 42 45
46 40 38 36 28 23 23 25 23 22 21 21 23 23 21 20 19 20 19 18 16 16 15 15 15 15 16 18 20 21 19 18 19 19 20 21 22 23 24 24 23 21 21 21 20 18 17 17 18 19 19 19 18 17 17 19 21 22 23 24 25 25 25 23 23 25 26 28 31 34 37 41 41 41 40 40 41 42 43 44 42 41 41 40 43
39 39 38 33 26 25 27 26 24 24 22 23 24 24 22 21 20 20 21 21 19 18 16 15 16 18 18 18 19 20 19 18 19 21 23 24 24 25 25 24 23 20 20 22 22 19 17 17 18 20 20 19 17 16 17 20 23 23 24 25 26 27 27 24 25 27 28 28 31 34 38 42 43 43 42 40 40 41 43 43 40 38 39 38 40
38 39 38 32 27 28 29 27 25 24 22 23 23 23 24 23 22 22 23 22 21 19 18 18 20 21 19 18 19 19 18 17 19 22 24 23 22 23 23 23 22 22 22 24 23 20 18 18 19 20 20 19 17 17 19 21 23 23 24 26 27 28 27 25 27 29 29 29 31 35 39 43 44 45 44 42 41 41 41 40 37 36 37 38 40
43 44 41 33 28 30 32 28 23 21 21 22 23 24 24 24 23 23 23 23 23 23 23 22 22 22 20 20 19 18 18 18 18 20 21 21 22 22 22 22 24 25 24 24 23 21 20 20 20 20 19 18 18 18 20 22 23 24 24 26 27 28 27 26 28 30 30 30 33 36 40 44 46 46 47 46 46 44 41 38 35 32 32 35 40
46 47 42 34 31 35 35 28 21 18 18 20 24 26 26 26 26 25 24 25 27 27 26 23 21 20 19 19 18 18 18 17 16 17 19 21 22 23 23 25 26 24 23 23 23 22 21 21 21 20 19 18 18 18 19 21 23 23 24 26 27 28 27 27 28 29 30 31 33 36 41 44 46 46 48 50 50 48 44 39 32 26 26 31 38
49 45 38 35 35 37 35 27 19 15 15 20 25 28 29 29 28 28 27 28 29 28 23 19 17 17 17 17 17 16 16 14 15 18 20 21 21 21 23 25 25 22 21 22 23 22 21 22 21 19 19 19 18 18 20 22 22 22 23 25 28 28 27 27 27 27 28 31 34 37 41 43 45 47 50 52 53 51 47 39 26 21 23 28 35
48 41 34 33 34 36 35 27 18 14 16 23 29 32 32 32 31 29 29 28 27 25 20 16 17 17 16 16 15 14 14 15 18 20 21 21 20 20 22 23 22 21 21 21 21 22 22 21 19 18 18 18 17 18 20 21 21 21 23 26 27 26 25 25 26 26 28 32 34 37 39 39 43 48 50 53 56 53 49 40 23 18 21 24 29
43 37 32 32 34 38 38 27 18 17 21 27 32 34 33 32 29 27 26 24 23 21 19 19 19 15 14 14 14 15 16 18 21 21 20 20 20 20 21 20 20 20 20 20 21 21 21 19 17 17 17 17 17 19 20 19 20 22 24 25 24 23 22 22 23 25 27 30 31 32 33 35 41 46 48 53 58 56 51 42 24 13 14 16 22
36 34 32 34 38 43 39 28 21 22 25 30 33 33 31 28 25 24 23 21 19 18 19 19 15 13 14 15 15 17 19 21 22 22 20 20 19 19 19 19 19 19 19 19 19 19 19 18 16 16 17 17 18 19 18 19 21 23 23 22 21 20 20 20 21 22 25 27 28 29 30 31 36 43 46 48 55 56 51 44 27 8 7 8 12
32 31 32 36 41 44 38 27 22 23 25 28 29 28 26 24 22 20 19 17 18 19 16 13 13 13 15 16 17 19 21 22 22 21 19 18 18 19 19 18 18 18 18 18 18 18 18 17 16 16 17 17 18 18 19 20 21 21 20 19 18 18 18 18 19 22 24 26 28 29 30 29 31 39 42 43 50 56 52 47 36 13 5 7 7
33 33 33 34 35 34 28 20 18 18 19 19 20 21 21 21 20 19 18 17 17 15 13 13 14 14 15 17 18 20 21 21 20 19 18 18 18 18 17 17 17 17 17 18 18 17 17 16 16 15 16 16 17 19 20 20 19 17 16 15 15 15 16 18 20 22 24 26 28 29 30 29 28 33 39 40 45 53 53 49 44 26 5 5 5
29 28 25 21 19 17 14 12 13 14 14 15 17 19 19 19 18 17 17 16 15 14 15 15 15 15 16 17 18 19 20 21 21 20 19 18 16 16 15 16 16 17 17 17 17 17 16 16 15 15 15 16 17 18 18 17 15 13 12 13 13 15 17 18 19 22 23 25 27 28 29 29 26 28 36 39 41 47 50 48 47 40 22 6 0
24 21 15 10 8 8 6 6 7 9 12 15 17 18 18 17 15 14 13 14 14 13 14 14 14 15 16 17 18 20 21 21 21 20 19 17 16 15 16 17 17 17 17 16 16 16 15 14 14 14 15 15 15 15 14 11 10 10 10 13 14 16 17 18 19 21 23 24 25 27 28 29 27 27 33 37 38 43 47 46 45 46 39 26 14
19 15 10 6 5 4 1 5 9 12 16 17 17 16 15 14 12 11 11 12 12 12 13 14 15 16 17 18 21 21 20 19 19 18 17 16 16 16 17 18 17 16 16 15 14 15 15 14 13 13 13 13 12 10 8 7 8 11 13 15 17 17 17 18 19 21 23 24 26 27 28 29 29 27 28 33 36 39 43 45 45 45 45 41 34
12 11 10 7 5 7 11 13 13 16 18 17 15 14 14 13 12 12 12 12 12 13 14 15 15 16 18 20 21 20 18 17 17 16 16 16 16 17 17 17 17 16 15 14 13 14 15 14 12 11 11 10 9 7 8 9 12 15 16 17 17 17 17 18 19 20 22 24 25 26 27 29 29 28 26 27 31 35 38 42 44 44 44 43 41
5 4 6 7 7 9 13 15 16 18 18 16 14 14 14 14 14 13 13 13 13 13 14 15 15 18 20 21 20 19 17 16 15 16 16 16 16 16 16 16 16 14 12 12 13 13 13 12 11 10 9 8 8 8 10 13 14 16 17 16 15 16 16 17 19 20 21 23 24 25 26 27 28 29 27 25 26 30 35 38 40 42 42 41 41
7 4 4 6 8 14 18 19 20 19 18 17 16 16 16 15 15 14 14 15 15 14 15 15 17 19 20 20 19 17 16 14 15 15 16 15 15 15 15 16 15 12 10 10 11 12 13 11 10 9 8 8 8 10 11 13 14 15 15 15 14 15 16 17 18 20 21 22 22 23 25 26 26 28 27 25 24 26 29 34 36 37 38 40 40
9 9 7 10 15 20 21 21 20 20 20 20 20 19 18 18 17 16 16 16 15 15 15 17 18 20 20 18 16 14 13 13 13 13 13 12 12 13 15 15 13 10 8 9 10 11 12 11 10 9 8 8 9 9 10 12 13 13 13 14 14 14 15 16 18 20 21 21 22 22 23 24 25 26 26 25 24 24 25 28 30 31 34 38 39
9 10 12 14 17 20 20 20 20 20 20 20 20 19 18 18 17 17 16 15 14 15 15 17 18 18 17 15 13 12 12 12 11 10 9 9 10 12 14 14 12 9 7 8 9 10 10 10 10 9 8 7 8 9 9 11 12 12 12 13 14 15 16 17 19 21 22 22 22 22 22 22 23 24 26 25 24 23 23 25 26 27 30 34 36
9 11 14 16 16 16 17 17 18 18 18 18 18 17 16 16 17 17 16 14 13 14 15 15 16 15 14 12 11 11 11 10 10 9 8 7 8 10 13 13 11 9 7 8 9 9 9 9 8 8 7 7 8 9 9 10 11 11 12 14 15 16 18 19 20 21 22 22 22 21 20 20 21 22 23 24 24 23 22 23 24 24 25 27 30
10 11 14 15 14 14 15 16 16 17 16 16 16 16 16 15 15 15 14 13 13 13 13 13 14 14 13 11 11 11 11 11 10 8 6 5 6 8 11 12 11 10 10 10 10 9 9 8 8 8 8 8 8 9 9 9 10 11 13 15 17 18 19 19 20 20 20 20 20 19 19 18 19 20 20 21 22 22 22 22 22 21 23 24 25
10 11 13 15 15 14 14 14 14 15 15 16 16 17 16 15 14 14 13 13 13 12 12 13 13 13 12 12 10 8 8 9 10 10 8 6 5 6 8 9 10 12 12 11 11 10 10 9 9 9 9 10 11 11 10 10 10 12 15 17 18 19 19 18 17 17 17 17 17 17 17 16 17 18 19 19 20 21 21 21 21 20 21 21 21
10 12 13 15 16 16 15 15 15 15 16 17 17 17 16 16 16 16 15 14 13 11 12 13 13 12 12 11 9 6 6 8 10 10 10 8 7 7 7 8 10 11 11 10 11 12 11 10 11 12 12 12 12 12 12 12 12 14 16 17 17 17 15 14 13 13 14 15 15 16 16 15 16 17 17 17 18 19 20 20 20 20 19 20 21
11 13 14 15 15 15 15 16 16 16 16 17 17 17 17 17 16 16 14 13 12 11 12 13 14 13 12 11 8 7 9 11 11 10 10 10 10 9 8 8 9 10 11 11 12 12 12 12 13 14 14 13 12 12 12 14 15 15 15 14 13 12 10 10 10 11 12 14 14 14 14 15 15 16 16 17 18 18 18 19 19 19 19 19 20
11 12 13 13 13 13 14 16 16 16 16 16 16 17 17 17 16 15 14 13 12 11 12 14 14 13 12 10 9 9 11 12 12 11 11 13 14 13 10 8 9 10 11 11 11 12 12 12 13 14 13 13 13 13 14 15 14 12 11 9 8 8 8 8 9 11 12 13 13 13 13 15 15 15 16 17 17 17 17 17 17 18 17 17 17
10 11 11 11 12 14 15 15 15 15 14 13 13 15 15 14 13 12 12 11 11 11 12 14 13 12 11 11 10 9 11 12 14 14 13 13 14 13 11 10 10 9 9 10 11 11 11 11 12 13 13 13 14 14 14 12 10 7 6 6 6 7 7 8 9 11 11 12 13 13 13 14 16 16 16 16 16 16 16 16 16 16 16 16 16
10 10 10 11 12 14 15 14 14 13 13 13 14 15 15 13 12 11 11 11 12 12 13 14 13 12 12 12 10 10 11 13 15 15 15 14 14 13 12 10 8 7 7 9 10 10 10 10 12 13 15 15 14 12 9 7 5 4 4 5 5 6 7 8 9 10 11 11 12 13 13 14 15 15 16 16 16 16 16 16 16 16 15 15 15
11 11 11 12 13 13 13 13 13 14 15 15 16 16 15 14 13 13 13 14 14 14 14 14 14 14 13 13 12 12 14 15 15 15 15 15 15 14 12 10 7 5 5 7 8 7 8 10 12 14 15 14 10 7 5 4 3 3 4 4 5 6 6 7 8 9 10 10 11 13 13 13 14 15 16 16 17 16 16 16 17 17 16 14 14
11 11 11 10 10 10 11 12 14 16 17 17 16 15 15 13 12 13 14 15 15 15 15 15 15 14 13 12 12 13 14 14 14 14 15 16 16 14 12 10 7 5 5 5 5 6 9 12 13 13 13 10 6 4 3 3 3 3 3 4 5 5 6 6 7 8 9 9 11 12 13 12 13 14 15 16 17 16 16 16 17 17 17 16 14
12 11 10 10 10 11 11 12 13 15 16 16 13 11 11 11 12 14 15 16 15 16 16 17 17 16 13 12 12 14 14 13 12 11 12 15 16 14 12 10 8 7 7 7 8 9 11 14 14 12 9 6 4 3 3 3 2 2 3 4 4 5 5 6 7 8 9 9 11 12 12 13 13 13 14 15 16 16 15 15 16 17 17 17 16
10 9 9 10 11 10 10 10 11 11 12 11 9 7 7 9 12 14 15 15 15 15 16 17 18 18 16 14 14 14 14 13 11 8 7 10 14 14 12 11 9 9 9 9 10 11 13 15 14 10 7 4 3 3 3 2 2 3 4 4 5 6 6 7 7 8 8 9 10 11 11 11 12 13 13 14 14 14 14 14 14 15 16 17 16
7 5 4 5 6 6 6 7 9 9 9 9 8 7 7 8 10 11 11 12 14 15 15 16 17 17 16 15 15 14 14 12 8 4 4 8 12 13 11 10 9 8 9 10 11 13 14 14 11 8 5 4 4 4 3 3 3 4 4 5 6 6 7 7 7 8 9 10 11 11 10 10 11 12 13 13 13 13 13 12 13 14 14 15 15
6 4 3 2 4 6 7 8 9 10 10 9 8 7 7 8 9 10 9 10 12 14 14 15 15 16 17 17 16 15 14 11 7 4 5 8 12 12 10 9 8 8 10 11 12 14 14 12 9 7 5 4 4 4 4 4 5 5 5 5 6 6 6 7 7 8 9 10 10 10 9 9 10 11 11 12 13 13 12 11 12 12 12 13 14
6 6 4 1 2 5 8 9 11 12 12 11 9 9 9 9 10 10 10 11 12 13 14 14 15 16 17 18 17 16 14 11 9 7 7 8 10 12 11 10 9 10 11 13 14 15 15 12 9 7 4 3 3 4 5 5 5 5 6 6 6 6 6 6 7 7 8 8 8 8 8 9 9 10 10 10 11 11 11 10 11 11 10 11 13
6 7 6 6 6 6 7 8 10 12 13 14 13 12 10 9 10 11 11 12 14 14 15 16 16 16 16 16 16 15 13 12 11 10 10 9 11 12 13 13 12 12 13 14 15 15 15 13 9 6 3 2 2 3 4 5 5 6 6 6 6 6 6 6 6 7 7 7 7 7 7 7 8 9 10 9 9 9 9 9 10 10 9 9 11
8 9 11 12 12 11 10 10 10 11 13 15 16 15 14 12 11 11 12 13 15 15 15 15 15 15 15 15 15 14 13 13 12 12 12 11 11 11 12 13 13 13 15 15 15 15 14 12 8 5 4 4 4 5 6 7 8 8 8 6 5 5 6 6 6 7 7 7 7 7 7 6 6 7 8 8 8 7 7 8 9 10 9 8 9
Wind_Direction
220 221 223 221 215 209 206 203 204 210 215 223 223 212 207 214 221 224 220 232 258 272 285 286 283 292 302 300 294 293 302 311 311 309 310 313 317 319 318 316 311 308 301 295 292 292 293 291 287 286 286 289 293 292 292 292 291 297 301 301 305 312 312 311 311 312 315 320 325 330 335 333 332 333 333 333 331 322 308 300 292 277 269 268 265
220 221 221 220 215 209 204 200 204 210 216 224 223 212 204 201 204 217 225 241 256 267 281 288 286 292 306 314 311 306 308 314 314 313 316 317 317 315 311 307 306 305 302 294 287 286 290 290 286 287 288 287 285 286 289 291 290 294 299 298 300 308 309 307 310 313 316 321 326 330 334 333 330 331 332 330 329 325 314 304 298 287 273 266 265
222 220 220 219 214 207 201 198 201 208 214 220 221 210 199 194 201 217 231 246 260 272 281 287 292 301 313 318 317 313 311 313 314 313 311 307 305 304 303 303 304 304 302 294 285 281 286 289 288 288 288 286 289 292 291 291 292 293 295 295 297 304 307 306 310 315 317 321 326 330 331 331 329 329 331 330 328 324 317 308 302 295 281 269 266
221 219 218 216 212 205 200 197 200 205 210 216 216 207 198 197 203 215 233 249 262 270 275 284 294 303 310 313 312 309 305 304 303 304 302 299 300 301 301 301 302 303 301 293 285 282 284 289 290 289 289 291 298 302 299 298 296 291 290 290 292 300 306 305 306 313 317 319 324 327 327 327 327 328 329 330 327 323 318 311 305 301 289 274 268
219 217 215 211 208 204 199 197 199 202 207 211 212 207 203 204 206 219 237 247 258 267 271 278 286 292 299 302 300 297 294 292 293 297 299 299 301 303 304 303 302 302 299 294 291 288 286 289 289 290 292 295 300 303 303 301 295 291 292 292 289 292 299 303 305 308 311 314 319 322 324 325 325 325 327 328 326 322 319 314 307 304 295 280 270
217 215 212 209 207 204 200 197 197 198 202 207 209 210 210 209 213 226 235 239 253 263 265 271 280 284 288 288 287 288 288 290 293 294 295 296 301 308 311 310 306 303 303 303 302 297 295 295 294 294 297 299 302 304 304 302 299 299 301 299 291 287 291 300 306 307 307 310 315 318 321 324 323 322 325 327 323 320 319 316 310 304 299 286 274
214 212 210 208 207 205 201 198 196 195 195 200 206 211 213 215 222 230 234 242 254 259 261 270 278 280 280 279 280 283 287 290 291 288 289 295 303 309 313 313 310 309 309 309 308 307 309 309 305 302 303 303 305 308 309 308 306 303 302 300 295 288 288 298 306 305 305 308 311 315 320 323 321 321 324 324 320 318 317 316 311 305 300 291 279
213 210 209 208 206 204 202 200 197 192 190 196 206 213 213 215 223 230 236 247 255 257 262 268 270 273 282 285 282 281 285 288 284 283 289 296 300 305 309 310 309 309 309 307 308 309 311 314 310 304 301 300 304 310 312 311 307 304 302 301 297 291 290 296 302 303 304 306 310 315 318 320 321 321 322 320 318 316 315 313 308 305 302 295 283
211 209 209 207 204 204 205 201 196 194 197 203 210 217 214 213 223 231 238 248 253 255 259 261 263 272 290 296 291 285 287 293 294 292 291 289 293 300 304 305 304 304 304 304 305 304 304 309 310 306 302 300 302 309 313 310 306 304 303 301 298 295 293 295 300 304 305 307 311 316 317 318 320 319 317 316 315 314 313 310 305 303 302 298 286
211 211 210 206 204 204 203 200 199 198 202 209 217 222 217 212 219 230 238 244 249 254 257 260 265 276 290 296 295 291 293 304 307 297 286 284 292 296 297 300 302 302 301 302 302 301 300 301 304 306 305 302 301 304 307 306 302 299 298 296 295 293 292 296 301 305 306 308 314 318 316 315 318 317 312 312 313 311 310 308 304 302 301 298 289
211 211 208 204 202 200 197 202 207 205 206 213 220 224 222 217 219 227 235 241 247 252 257 264 269 275 284 288 290 292 296 303 305 296 287 285 289 291 294 300 303 302 302 303 303 302 298 295 294 299 304 303 300 300 300 300 299 297 295 293 293 294 294 297 301 303 307 313 318 321 318 316 317 315 310 310 312 309 307 305 302 300 297 294 289
206 206 206 204 202 200 199 206 208 209 214 217 220 228 229 226 227 231 236 242 249 251 255 266 274 275 277 278 281 288 292 293 293 292 290 287 287 292 297 301 302 301 301 304 305 304 298 292 288 294 302 304 304 305 304 301 300 299 298 297 297 298 296 295 296 301 312 319 321 324 324 319 315 313 311 311 310 307 305 301 297 295 292 288 284
207 207 207 205 203 205 210 210 206 210 221 221 223 229 231 232 233 234 238 244 250 253 255 265 276 277 274 273 277 283 285 284 282 284 287 286 285 291 296 298 298 298 299 303 306 306 301 294 291 295 299 301 305 310 310 308 306 303 301 300 300 300 299 294 292 300 314 322 323 327 329 323 315 313 315 313 310 307 303 299 295 293 288 283 280
212 209 204 199 201 208 215 208 206 216 225 224 224 228 231 235 236 236 239 243 249 254 256 264 274 277 276 277 278 278 279 278 276 277 281 281 280 285 290 290 290 293 297 301 304 305 302 297 296 297 294 293 298 303 306 310 311 307 304 303 304 305 302 295 291 297 309 320 325 328 330 327 322 319 319 316 312 308 303 298 294 290 286 281 277
212 207 200 195 201 216 216 207 212 223 225 224 226 228 233 239 240 240 240 240 247 254 257 263 271 275 277 277 276 276 277 275 271 269 271 271 272 278 281 280 283 291 297 299 300 302 302 300 297 295 290 288 289 292 299 308 309 307 307 307 307 306 300 294 293 297 305 316 323 326 329 330 328 325 322 318 314 310 304 300 296 292 288 281 275
209 204 194 192 207 223 214 210 218 222 223 227 228 229 234 239 243 244 240 239 245 251 257 266 273 276 277 276 275 276 274 269 265 264 267 269 271 276 278 279 284 293 298 299 299 300 302 302 299 293 290 288 286 285 295 304 307 307 308 308 305 302 299 295 294 297 303 312 320 325 329 331 331 329 327 322 318 315 309 303 299 294 287 277 270
198 194 190 198 220 223 211 214 221 218 223 229 229 231 235 238 242 243 240 239 242 247 258 270 274 274 273 275 277 277 274 270 269 274 278 278 278 280 280 280 285 290 294 297 300 300 301 302 299 295 292 290 284 283 291 300 304 307 307 306 304 303 303 301 297 297 301 307 316 324 330 333 334 334 332 328 325 320 311 304 300 293 283 271 262
197 196 199 212 226 220 213 218 219 217 224 229 231 234 235 238 243 244 241 241 243 249 259 265 268 269 269 273 278 278 276 276 281 286 287 284 282 282 279 278 282 288 291 295 297 299 302 303 298 294 293 289 283 283 291 298 303 306 305 305 305 307 307 305 302 302 302 305 314 325 331 334 336 337 336 334 332 326 316 308 303 293 280 266 255
205 207 212 220 224 220 218 217 213 216 226 231 235 237 236 241 247 244 243 245 246 251 256 260 265 269 270 273 274 273 275 281 289 291 288 286 285 283 278 278 283 288 290 291 292 297 305 305 299 293 290 285 282 285 292 297 301 305 305 305 308 310 310 308 307 308 307 308 318 327 332 335 338 340 342 341 339 333 325 317 309 295 279 263 250
215 215 219 223 220 218 218 214 210 219 231 237 240 240 239 245 248 247 247 245 243 248 253 256 262 269 270 270 270 273 279 285 288 286 284 285 285 282 280 282 284 286 287 287 290 299 307 306 301 296 288 283 283 288 294 298 302 305 306 306 309 312 313 312 311 310 307 309 317 324 329 334 339 341 345 346 344 341 336 329 315 294 274 259 246
217 218 223 225 220 219 220 215 213 225 240 244 244 241 241 245 248 248 246 242 242 244 242 245 261 273 271 269 271 277 282 285 284 283 286 287 285 283 282 281 281 282 285 288 293 302 306 304 302 298 291 287 288 292 297 301 305 307 307 307 309 311 312 313 314 313 310 310 315 318 323 333 341 345 347 349 348 347 346 340 319 279 259 252 243
216 219 225 223 221 224 223 219 220 234 245 246 243 241 241 244 246 245 242 239 239 233 231 252 278 279 269 267 273 277 281 285 286 288 290 289 287 284 280 278 278 281 285 288 295 302 304 302 301 300 296 294 293 295 299 303 307 308 308 307 308 309 310 312 315 317 315 315 316 316 320 333 346 350 351 352 352 353 354 348 323 268 254 250 239
219 223 224 219 222 228 226 222 227 239 245 247 242 239 241 244 243 240 236 232 227 226 245 275 284 269 259 267 276 280 285 289 290 291 293 293 289 282 277 276 279 282 286 290 296 300 302 302 300 297 294 294 296 297 299 303 308 309 308 307 307 309 311 314 319 322 322 323 323 322 325 337 350 353 355 356 355 356 358 354 334 274 257 258 240
225 226 225 220 225 230 227 224 232 241 245 245 241 238 241 242 236 231 229 229 235 252 272 278 266 251 258 272 278 283 288 291 293 295 297 296 291 283 278 278 280 283 289 294 297 299 300 299 296 292 291 295 298 297 298 303 308 309 307 306 308 311 314 319 326 332 334 335 336 333 332 339 349 354 358 359 357 356 359 2 358 317 264 283 253
223 226 227 224 227 229 226 226 237 247 249 247 242 240 238 232 226 227 233 245 262 275 275 258 245 251 266 275 281 287 291 294 296 298 298 295 291 285 281 280 282 288 294 296 296 297 297 296 295 293 294 296 296 295 299 306 310 309 307 308 311 315 318 325 334 338 340 342 342 338 334 336 346 356 1 2 0 359 2 9 14 8 271 286 276
222 225 225 222 222 224 223 226 237 244 242 238 234 231 228 226 229 238 249 261 270 269 254 242 248 260 271 281 288 292 297 300 301 301 299 296 291 285 281 280 285 293 296 295 295 296 294 295 295 293 291 291 292 297 304 309 309 307 307 311 315 319 325 331 338 340 340 342 342 340 338 336 340 354 3 4 5 6 6 10 18 24 7 269 287
211 209 206 201 202 207 209 213 219 219 217 216 218 222 226 232 240 249 258 264 262 255 247 247 256 268 279 289 295 298 302 304 303 301 298 295 289 281 277 281 288 293 293 291 292 291 289 288 287 286 286 289 294 302 306 307 307 307 311 317 321 325 331 336 340 341 342 343 343 342 344 342 341 356 7 8 8 11 10 11 19 28 36 46 262
175 171 163 152 159 173 186 209 225 233 235 232 230 231 235 240 246 252 256 255 251 249 251 257 269 281 291 298 300 300 301 301 300 297 292 289 284 278 277 283 287 287 286 286 286 285 281 277 275 279 287 293 300 304 303 301 308 316 321 324 324 326 330 333 338 342 344 345 345 345 348 348 349 360 11 13 13 12 10 13 20 27 32 41 53
132 123 111 113 137 135 25 311 291 274 261 249 241 240 239 240 243 243 243 243 245 250 259 270 280 288 295 299 298 297 298 298 295 290 284 280 278 277 280 283 282 280 281 282 279 276 274 273 274 278 285 292 298 301 296 298 314 322 322 322 321 323 328 332 337 343 346 347 349 350 351 351 354 360 8 14 16 15 11 14 22 27 30 33 38
96 81 67 59 50 13 340 313 283 261 254 248 244 242 238 232 231 232 236 242 249 259 270 280 286 291 296 298 296 296 296 293 286 280 276 273 273 275 279 279 276 275 278 279 275 272 274 279 281 280 284 289 291 293 297 305 313 316 317 317 319 323 329 335 339 344 348 350 351 354 354 354 356 360 3 9 16 18 15 16 21 26 28 29 30
88 50 14 11 0 327 300 277 255 244 243 242 241 240 234 229 230 233 241 253 261 269 278 284 289 293 297 297 296 293 291 284 277 271 268 267 269 272 273 271 270 273 278 280 277 277 281 285 286 285 287 288 286 291 301 305 306 308 311 315 322 327 332 337 341 343 347 350 352 354 356 357 359 1 2 6 12 17 19 19 20 23 26 27 28
134 175 277 278 249 240 240 239 237 237 239 242 244 242 237 235 238 246 257 265 268 271 277 283 288 293 296 296 293 290 286 280 272 266 264 265 266 265 263 264 267 273 278 278 277 281 286 286 286 287 287 287 289 293 299 303 305 309 314 320 327 332 335 339 342 343 345 348 351 354 356 358 0 1 2 7 12 15 17 18 18 20 24 28 30
170 182 223 224 213 215 221 228 233 238 243 245 244 241 239 241 249 258 263 264 265 269 277 283 287 292 295 294 289 284 281 275 268 262 260 259 256 255 255 258 263 270 276 278 280 285 286 283 283 286 285 286 291 294 296 302 307 313 320 323 326 331 336 339 340 340 343 346 350 353 354 356 359 1 2 7 15 18 17 17 16 19 24 26 27
185 204 223 218 213 216 223 232 236 238 239 239 237 239 243 248 254 258 258 258 264 272 279 283 287 291 292 290 284 277 272 266 258 251 248 247 247 250 252 255 261 269 277 283 286 285 281 279 283 286 283 286 294 295 298 304 309 314 320 322 325 329 333 335 336 336 338 340 343 348 351 353 356 0 2 6 13 20 21 19 19 22 26 25 23
198 222 228 225 225 226 227 229 230 230 232 237 241 247 252 252 252 250 250 256 267 274 279 284 288 290 289 285 276 265 257 251 244 238 237 242 244 243 246 257 271 279 282 286 286 279 273 275 279 282 284 289 294 296 299 305 312 318 323 325 327 329 330 331 331 330 331 333 336 341 347 352 356 1 4 7 13 19 22 22 22 23 25 26 25
206 220 226 226 227 226 223 225 228 234 244 253 259 264 263 255 247 243 246 258 267 272 277 283 285 286 287 285 277 265 253 250 255 260 261 259 250 239 240 254 268 275 278 282 278 268 264 267 270 277 289 295 296 300 307 313 319 326 329 330 330 330 328 327 327 327 328 331 334 338 344 350 356 0 4 8 13 19 23 25 25 25 24 28 33
209 223 229 231 233 235 238 243 249 255 260 266 270 270 263 251 246 247 253 261 265 269 276 282 284 285 284 284 287 281 264 264 279 288 282 273 265 254 249 255 263 269 275 276 267 259 261 266 270 279 290 295 297 301 308 317 324 329 331 330 328 326 326 327 329 332 333 334 337 341 347 354 1 4 5 8 12 17 21 23 25 27 26 28 36
221 228 231 234 240 245 252 260 264 266 268 270 269 263 253 249 252 255 255 257 262 268 277 282 282 281 280 282 289 296 292 298 303 294 277 267 262 252 248 254 261 265 266 262 256 257 263 270 276 283 288 291 296 302 309 320 329 330 327 323 321 323 328 331 334 339 341 341 344 349 353 2 11 13 11 12 13 15 19 23 25 27 29 30 34
229 234 237 240 246 252 260 266 266 266 265 263 260 256 255 257 257 252 249 255 262 267 274 277 276 276 278 280 285 294 304 312 313 296 270 257 251 244 243 252 261 261 257 254 255 261 269 274 279 284 285 289 297 307 315 322 325 324 320 318 320 329 336 338 343 350 350 348 352 357 1 11 22 23 20 20 20 16 18 24 27 28 31 35 38
238 241 244 249 256 264 271 273 271 268 265 260 261 264 263 260 254 247 250 257 259 261 268 270 269 270 273 273 278 291 302 309 311 301 278 258 249 246 247 255 265 266 262 261 264 269 275 279 281 283 287 294 305 314 317 318 319 319 320 323 333 345 349 352 359 1 356 354 360 6 11 19 28 30 28 28 29 25 22 25 29 32 35 39 44
240 245 253 264 271 276 279 278 275 274 271 267 265 260 252 245 242 245 252 257 254 254 263 265 262 259 259 260 269 286 296 300 303 303 289 265 250 245 247 258 269 269 263 263 268 273 279 284 287 289 293 300 308 313 314 315 319 324 331 342 355 1 2 7 12 7 359 359 6 13 19 25 31 32 31 30 31 34 33 31 31 34 37 42 47
245 254 266 275 277 278 279 278 275 273 268 259 252 246 241 241 243 242 243 246 245 246 252 256 252 246 247 254 264 277 285 290 296 297 286 264 247 242 245 252 261 264 260 261 266 272 279 284 287 290 294 300 308 314 315 318 329 344 356 9 17 16 12 15 17 11 4 3 8 13 19 27 32 32 28 25 28 35 39 39 37 36 38 43 48
259 268 275 277 275 273 273 269 267 265 256 246 240 241 243 249 251 245 241 243 244 243 243 245 242 240 244 254 264 272 277 283 291 291 278 260 248 244 240 237 243 261 269 266 266 274 288 294 292 291 294 302 313 321 320 329 353 6 16 25 27 22 18 17 17 14 8 6 9 11 14 20 28 29 23 19 22 30 38 42 42 41 40 43 49
276 274 272 268 263 264 266 264 263 261 255 248 246 248 253 255 250 240 239 242 241 237 235 239 243 246 249 254 261 269 276 285 291 286 269 254 247 240 229 223 237 260 271 276 285 296 307 312 308 299 298 308 323 325 323 347 12 11 13 21 21 18 18 17 16 16 14 12 12 10 7 11 21 26 22 15 15 22 32 38 41 43 42 44 50
278 275 273 271 268 271 273 269 264 263 264 266 269 270 270 264 249 239 242 248 246 238 236 242 249 254 255 259 266 274 284 294 296 281 260 250 245 234 217 215 232 250 262 281 297 302 308 315 313 303 299 310 321 314 319 347 0 354 0 8 7 4 7 11 15 17 16 15 17 15 9 7 14 21 21 16 12 16 26 35 40 42 43 44 48
279 282 283 279 276 276 275 272 273 277 282 289 295 293 282 267 256 253 259 262 256 248 245 248 251 254 257 263 271 280 293 302 297 274 241 231 229 223 214 216 228 243 258 272 285 294 302 308 306 299 295 303 302 298 310 330 336 341 347 352 356 356 357 360 7 12 12 15 21 22 15 9 11 15 16 14 13 15 21 30 38 43 45 47 50
283 283 279 279 283 285 283 285 293 299 304 308 304 292 276 265 261 263 263 257 247 242 242 244 247 252 258 266 273 283 295 299 288 253 191 190 201 207 215 224 230 241 253 263 278 294 301 299 291 285 287 292 287 290 308 323 329 337 342 343 348 350 347 349 357 1 3 9 18 21 16 11 12 13 10 9 13 16 16 22 34 43 46 48 51
272 245 231 272 302 303 301 300 300 302 305 308 300 286 276 270 267 267 265 252 242 238 238 241 248 257 264 269 276 285 292 291 274 227 178 181 194 207 225 243 249 251 256 265 281 295 298 290 275 269 278 288 283 285 301 316 324 332 333 333 337 338 337 340 346 350 353 0 9 12 9 8 14 16 10 7 13 17 15 19 30 40 45 49 52
245 225 215 238 289 296 298 299 298 298 299 297 290 284 283 278 273 270 268 259 251 247 247 251 257 264 267 269 274 279 282 278 264 236 208 205 212 220 232 248 260 262 265 273 283 290 291 284 271 262 268 282 280 286 298 310 319 325 324 318 317 320 322 328 332 335 341 351 359 0 358 0 9 16 16 14 15 15 15 21 30 38 44 49 51
246 236 240 251 260 272 282 286 287 287 286 283 281 281 283 281 275 270 267 263 260 258 259 261 263 264 263 264 268 272 274 269 255 236 221 224 233 234 235 243 255 264 272 278 281 281 281 277 267 260 268 293 293 299 307 310 317 325 322 312 306 305 306 312 319 323 328 338 347 351 353 357 4 12 19 23 23 18 16 22 31 38 44 52 55
274 260 257 258 260 266 272 277 281 281 277 273 271 272 273 273 268 263 261 261 259 258 259 259 257 255 256 258 261 267 271 264 249 234 229 233 239 239 238 243 253 268 278 279 275 273 274 274 272 279 308 333 338 335 330 325 325 325 322 312 301 294 293 298 304 308 314 328 340 345 349 357 5 11 18 26 31 29 23 20 28 38 46 56 63